(2457) Rublyov = 1939 EL = 1956 ES = 1969 EW = 1975 TU2

Discovered at Nauchnyj on 1975-10-03 by L. I. Chernykh.
(2457) Rublyov = 1975 TU2

Named for Andrej Rublyov (ca. 1360-ca. 1430), a world-renowned Russian painter who worked on the paintings of some of the cathedrals in Moscow and elsewhere. [Ref: Minor Planet Circ. 13172]

Orbit

Orbit type: Main Belt

Note: WebGL enabled browser required.

epoch2024-03-31.0
epoch JD2460400.5
perihelion date2021-02-01.93784
perihelion JD2459247.43784
argument of perihelion (°)79.35161
ascending node (°)140.60102
inclination (°)6.26456
eccentricity0.0671287
perihelion distance (AU)2.4616058
Tisserand w.r.t. Jupiter3.4
ΔV w.r.t. Earth (km/sec)10.0
semimajor axis (AU)2.6387409
mean anomaly (°)265.13157
mean daily motion (°/day)0.22993690
aphelion distance (AU)2.816
period (years)4.29
P-vector [x]-0.76285084
P-vector [y]-0.62766187
P-vector [z]-0.15523909
Q-vector [x]0.64285430
Q-vector [y]-0.71055765
Q-vector [z]-0.28608769
absolute magnitude12.74
phase slope0.15
uncertainty0
referenceMPEC 2024-F74
observations used4781
oppositions34
arc length (days)31053
first opposition used1939
last opposition used2024
residual rms (arc-secs)0.50
perturbers coarse indicatorM-v
perturbers precise indicator003Ek
first observation date used1939-03-14.0
last observation date used2024-03-21.0
computer nameMPCLINUX
JD of orbit computation2456937.480760
perihelion JD uncertainty (days)7.7876E-05
argument of perihelion uncertainty (°)2.9628E-05
ascending node uncertainty (°)2.3352E-05
inclination uncertainty (°)2.4025E-06
eccentricity uncertainty 2.3154E-08
perihelion distance uncertainty (AU)6.0944E-08
Minimum Orbit Intersection Distances (in AU)
for orbit epoch: 2460400.5, reference: E2024-G38
Mercury2.0123
Venus1.74114
Earth1.46345
Mars0.85082
Jupiter2.1645
Saturn6.28685
Uranus15.8923
Neptune27.0166

Observations

4861 total observations over interval: 1939 03 14.9790 – 2024 03 21.282488
These data are available for download (format description).

Date (UT) J2000 RA J2000 Dec Magn Location Ref
1939 03 14.9790 12 55 57.83 +01 38 11.7 15.8   062 – Turku TI 32
1939 03 14.98 12 56.0 +01 39 15.8   062 – Turku RI 1948
1939 03 18.0169 12 53 56.01 +02 01 15.7   062 – Turku TI 32
1956 03 09.19630 11 26 34.99 +08 49 03.2 17.1   760 – Goethe Link Observatory, Brooklyn MPC 5429
1956 03 09.20 11 26.7 +08 50 17.1   760 – Goethe Link Observatory, Brooklyn MPC 1477
1956 03 09.23657 11 26 32.78 +08 49 24.2 17.1   760 – Goethe Link Observatory, Brooklyn MPC 5429
1969 03 12.98347 12 38 17.64 +03 06 43.6 16.5   095 – Crimea-Nauchnyi MPC 3054
1969 03 23.96230 12 30 04.14 +04 32 03.4 16.5   095 – Crimea-Nauchnyi MPC 3055
1975 10 03.97837 01 39 02.34 +01 34 05.2 17.5   095 – Crimea-Nauchnyi MPC 4214
1975 10 13.95513 01 30 59.05 +00 31 06.1 17.5   095 – Crimea-Nauchnyi MPC 4215
1975 11 06.81727 01 12 35.84 -01 20 47.5 18.0   095 – Crimea-Nauchnyi MPC 4220
1975 11 24.81042 01 04 36.39 -01 43 19.4 19.0   033 – Karl Schwarzschild Observatory, Tautenburg MPC 9008
1975 11 25.79757 01 04 22.63 -01 42 52.7   033 – Karl Schwarzschild Observatory, Tautenburg MPC 9008
1978 05 09.99210 16 06 52.68 -10 18 23.7   095 – Crimea-Nauchnyi MPC 6016
1980 12 04.29899 06 05 42.72 +15 28 49.2   801 – Oak Ridge Observatory MPC 6267
1981 01 03.24133 05 37 20.17 +15 59 15.3   801 – Oak Ridge Observatory MPC 6267
1982 03 23.37639 13 45 20.95 -01 58 21.0   688 – Lowell Observatory, Anderson Mesa Station MPC 6774
1982 03 23.41667 13 45 19.43 -01 58 04.8   688 – Lowell Observatory, Anderson Mesa Station MPC 6774
1983 07 13.36736 22 11 01.59 -10 26 57.5   688 – Lowell Observatory, Anderson Mesa Station MPC 8255
1983 07 13.42708 22 11 00.35 -10 27 12.4   688 – Lowell Observatory, Anderson Mesa Station MPC 8255
1986 03 05.26703 11 10 34.34 +09 47 35.4   688 – Lowell Observatory, Anderson Mesa Station MPC 10602
1986 03 05.34086 11 10 30.49 +09 48 10.4   688 – Lowell Observatory, Anderson Mesa Station MPC 10602
1988 10 07.40799 02 32 56.67 +05 47 40.6   675 – Palomar Mountain MPC 27656
1988 10 07.43455 02 32 55.65 +05 47 32.0   675 – Palomar Mountain MPC 27656
1988 11 03.66436 02 10 46.56 +03 23 24.5   327 – Peking Observatory, Xinglong Station MPC 21668
1990 01 29.87083 08 55 31.93 +15 34 29.2   046 – Klet Observatory, Ceske Budejovice MPC 15955
1990 01 29.88495 08 55 30.91 +15 34 35.3   046 – Klet Observatory, Ceske Budejovice MPC 15955
1990 02 17.82743 08 38 56.01 +17 28 53.9 16.7   046 – Klet Observatory, Ceske Budejovice MPC 16132
1990 02 17.84155 08 38 55.38 +17 28 57.1   046 – Klet Observatory, Ceske Budejovice MPC 16132
1990 02 20.80955 08 36 43.08 +17 44 58.5   046 – Klet Observatory, Ceske Budejovice MPC 16132
1990 02 20.82373 08 36 42.54 +17 45 02.5   046 – Klet Observatory, Ceske Budejovice MPC 16132
1992 09 26.88837 00 35 28.44 -03 41 33.6   046 – Klet Observatory, Ceske Budejovice MPC 20977
1992 09 26.90289 00 35 27.70 -03 41 39.5   046 – Klet Observatory, Ceske Budejovice MPC 20977
1996 09 15.34637 22 29 29.99 -13 05 26.9 16.8 V 566 – Haleakala-NEAT/GEODSS MPC 27785
1996 09 15.35574 22 29 29.57 -13 05 30.1 16.9 V 566 – Haleakala-NEAT/GEODSS MPC 27785
1996 09 15.40105 22 29 27.55 -13 05 45.8 16.8 V 566 – Haleakala-NEAT/GEODSS MPC 27785
1996 10 05.12479 22 19 07.51 -14 28 20.7 17.2 V 691 – Steward Observatory, Kitt Peak-Spacewatch MPS 80413
1996 10 05.13093 22 19 07.38 -14 28 21.6 17.2 V 691 – Steward Observatory, Kitt Peak-Spacewatch MPS 80413
1996 10 05.13833 22 19 07.23 -14 28 22.7 17.1 V 691 – Steward Observatory, Kitt Peak-Spacewatch MPS 80413
1997 10 12.47883 05 18 37.397 +15 09 13.68 16.21 J G91 – Whipple Observatory, Mt. Hopkins--2MASS MPS 80413
1999 02 20.40285 12 31 06.05 +02 15 10.0 16.1 R 699 – Lowell Observatory-LONEOS MPS 4344
1999 02 20.42325 12 31 05.61 +02 15 17.6   699 – Lowell Observatory-LONEOS MPS 4344
1999 02 20.44366 12 31 05.19 +02 15 24.3   699 – Lowell Observatory-LONEOS MPS 4344
1999 03 20.29607 12 14 09.84 +05 40 45.6 18.0   704 – Lincoln Laboratory ETS, New Mexico MPS 4344
1999 03 20.31429 12 14 08.90 +05 40 54.3   704 – Lincoln Laboratory ETS, New Mexico MPS 4344
1999 03 20.33251 12 14 08.05 +05 41 02.8   704 – Lincoln Laboratory ETS, New Mexico MPS 4344
1999 03 20.35073 12 14 07.13 +05 41 11.9   704 – Lincoln Laboratory ETS, New Mexico MPS 4344
1999 03 20.36884 12 14 06.27 +05 41 19.4   704 – Lincoln Laboratory ETS, New Mexico MPS 4344
1999 03 23.32521 12 11 44.12 +06 03 58.6 17.9   704 – Lincoln Laboratory ETS, New Mexico MPS 4344
1999 03 23.33990 12 11 43.40 +06 04 05.3   704 – Lincoln Laboratory ETS, New Mexico MPS 4344
1999 03 23.34612 12 11 43.13 +06 04 08.0 15.6 R 699 – Lowell Observatory-LONEOS MPS 59198
1999 03 23.35464 12 11 42.63 +06 04 13.0 18.1   704 – Lincoln Laboratory ETS, New Mexico MPS 4344
1999 03 23.36933 12 11 41.92 +06 04 19.3   704 – Lincoln Laboratory ETS, New Mexico MPS 4344
1999 03 23.37669 12 11 41.59 +06 04 21.9   699 – Lowell Observatory-LONEOS MPS 59198
1999 03 23.38412 12 11 41.16 +06 04 25.6   704 – Lincoln Laboratory ETS, New Mexico MPS 4344
1999 03 23.40733 12 11 40.07 +06 04 35.9   699 – Lowell Observatory-LONEOS MPS 59198
1999 04 05.82428 12 01 13.57 +07 35 21.9   106 – Crni Vrh MPS 4640
1999 04 05.84063 12 01 12.81 +07 35 27.1   106 – Crni Vrh MPS 4640
1999 04 05.85679 12 01 12.11 +07 35 32.7   106 – Crni Vrh MPS 4640
1999 04 12.13460 11 56 57.69 +08 08 09.5 17.8   704 – Lincoln Laboratory ETS, New Mexico MPS 4640
1999 04 12.15163 11 56 56.93 +08 08 16.6   704 – Lincoln Laboratory ETS, New Mexico MPS 4640
1999 04 12.16870 11 56 56.31 +08 08 21.0   704 – Lincoln Laboratory ETS, New Mexico MPS 4640
1999 04 12.18570 11 56 55.72 +08 08 25.7   704 – Lincoln Laboratory ETS, New Mexico MPS 4640
1999 04 14.33730 11 55 37.53 +08 17 47.4 16.8   704 – Lincoln Laboratory ETS, New Mexico MPS 4640
1999 04 14.35738 11 55 36.68 +08 17 53.7 16.7   704 – Lincoln Laboratory ETS, New Mexico MPS 4640
1999 04 14.37922 11 55 35.87 +08 17 59.3 17.6   704 – Lincoln Laboratory ETS, New Mexico MPS 4640
1999 04 14.40024 11 55 35.10 +08 18 02.6 17.6   704 – Lincoln Laboratory ETS, New Mexico MPS 4640
1999 04 15.16398 11 55 09.21 +08 21 09.4 16.2   704 – Lincoln Laboratory ETS, New Mexico MPS 4640
1999 04 15.18280 11 55 08.50 +08 21 15.3 17.3   704 – Lincoln Laboratory ETS, New Mexico MPS 4640
1999 04 15.20178 11 55 07.84 +08 21 19.1 17.2   704 – Lincoln Laboratory ETS, New Mexico MPS 4640
1999 04 15.22089 11 55 07.19 +08 21 24.2 17.1   704 – Lincoln Laboratory ETS, New Mexico MPS 4640
1999 04 15.23997 11 55 06.47 +08 21 28.8 17.4   704 – Lincoln Laboratory ETS, New Mexico MPS 4640
1999 04 16.30755 11 54 30.92 +08 25 33.8 17.5   704 – Lincoln Laboratory ETS, New Mexico MPS 4640
1999 04 16.31799 11 54 30.62 +08 25 39.3 17.5   704 – Lincoln Laboratory ETS, New Mexico MPS 4640
1999 04 16.32864 11 54 30.07 +08 25 36.3 17.8   704 – Lincoln Laboratory ETS, New Mexico MPS 4640
1999 04 16.33947 11 54 29.77 +08 25 41.0 17.8   704 – Lincoln Laboratory ETS, New Mexico MPS 4640
1999 04 16.35023 11 54 29.34 +08 25 44.8 17.8   704 – Lincoln Laboratory ETS, New Mexico MPS 4640
1999 04 19.13175 11 53 04.44 +08 35 14.0 17.9   704 – Lincoln Laboratory ETS, New Mexico MPS 4640
1999 04 19.14821 11 53 03.88 +08 35 17.3 18.1   704 – Lincoln Laboratory ETS, New Mexico MPS 4640
1999 04 19.16466 11 53 03.29 +08 35 21.3 18.0   704 – Lincoln Laboratory ETS, New Mexico MPS 4640
1999 04 19.18104 11 53 02.83 +08 35 25.0 18.0   704 – Lincoln Laboratory ETS, New Mexico MPS 4640
1999 04 19.19735 11 53 02.18 +08 35 27.3 18.0   704 – Lincoln Laboratory ETS, New Mexico MPS 4640
1999 06 08.21109 11 59 26.15 +07 05 24.7 17.5   704 – Lincoln Laboratory ETS, New Mexico MPS 5343
1999 06 08.22064 11 59 26.55 +07 05 21.3 17.7   704 – Lincoln Laboratory ETS, New Mexico MPS 5343
1999 06 08.22995 11 59 26.95 +07 05 18.2 17.8   704 – Lincoln Laboratory ETS, New Mexico MPS 5343
1999 06 08.23932 11 59 27.35 +07 05 14.9 17.8   704 – Lincoln Laboratory ETS, New Mexico MPS 5343
